����������;��������(kWh)
2016-08-15 00:00;71,6
2016-08-15 00:15;72,3
2016-08-15 00:30;77,05
2016-08-15 00:45;78,3
2016-08-15 01:00;79,95
2016-08-15 01:15;75,5
2016-08-15 01:30;70,4
2016-08-15 01:45;71,8
2016-08-15 02:00;71,3
2016-08-15 02:15;71,2
2016-08-15 02:30;72,95
2016-08-15 02:45;71,6
2016-08-15 03:00;72,2
2016-08-15 03:15;72,75
2016-08-15 03:30;71,5
2016-08-15 03:45;71,9
2016-08-15 04:00;72,35
2016-08-15 04:15;71
2016-08-15 04:30;70,95
2016-08-15 04:45;71,95
2016-08-15 05:00;72,2
2016-08-15 05:15;71,8
2016-08-15 05:30;71,95
2016-08-15 05:45;70,9
2016-08-15 06:00;70,5
2016-08-15 06:15;70,45
2016-08-15 06:30;69,2
2016-08-15 06:45;67,1
2016-08-15 07:00;65,75
2016-08-15 07:15;71
2016-08-15 07:30;70,45
2016-08-15 07:45;68,25
2016-08-15 08:00;68
2016-08-15 08:15;70,25
2016-08-15 08:30;68,55
2016-08-15 08:45;68,9
2016-08-15 09:00;70,8
2016-08-15 09:15;68,25
2016-08-15 09:30;69,85
2016-08-15 09:45;67,55
2016-08-15 10:00;70,85
2016-08-15 10:15;67,75
2016-08-15 10:30;69,15
2016-08-15 10:45;67,55
2016-08-15 11:00;69,8
2016-08-15 11:15;67,8
2016-08-15 11:30;72,3
2016-08-15 11:45;73,45
2016-08-15 12:00;69,8
2016-08-15 12:15;73,3
2016-08-15 12:30;72,45
2016-08-15 12:45;72,1
2016-08-15 13:00;71,15
2016-08-15 13:15;70,6
2016-08-15 13:30;68,7
2016-08-15 13:45;71,75
2016-08-15 14:00;72,55
2016-08-15 14:15;72,85
2016-08-15 14:30;76,75
2016-08-15 14:45;75,35
2016-08-15 15:00;79,15
2016-08-15 15:15;75,35
2016-08-15 15:30;69,9
2016-08-15 15:45;72,45
2016-08-15 16:00;72,2
2016-08-15 16:15;68,1
2016-08-15 16:30;73,7
2016-08-15 16:45;73,45
2016-08-15 17:00;72,85
2016-08-15 17:15;75,1
2016-08-15 17:30;74,45
2016-08-15 17:45;73,9
2016-08-15 18:00;73,35
2016-08-15 18:15;74,2
2016-08-15 18:30;71,75
2016-08-15 18:45;75,15
2016-08-15 19:00;70,75
2016-08-15 19:15;67,75
2016-08-15 19:30;73,1
2016-08-15 19:45;72,8
2016-08-15 20:00;73,3
2016-08-15 20:15;73,75
2016-08-15 20:30;77,65
2016-08-15 20:45;77,3
2016-08-15 21:00;78,7
2016-08-15 21:15;74,65
2016-08-15 21:30;73,15
2016-08-15 21:45;71,6
2016-08-15 22:00;74,4
2016-08-15 22:15;71,55
2016-08-15 22:30;74,05
2016-08-15 22:45;72,4
2016-08-15 23:00;73,6
2016-08-15 23:15;73,5
2016-08-15 23:30;76,5
2016-08-15 23:45;80,1
2016-08-16 00:00;78,25
2016-08-16 00:15;77,7
2016-08-16 00:30;70,95
2016-08-16 00:45;72,35
2016-08-16 01:00;71,8
2016-08-16 01:15;71,45
2016-08-16 01:30;70,4
2016-08-16 01:45;70,5
2016-08-16 02:00;69,85
2016-08-16 02:15;71
2016-08-16 02:30;69,35
2016-08-16 02:45;70,85
2016-08-16 03:00;69,25
2016-08-16 03:15;71,1
2016-08-16 03:30;69,15
2016-08-16 03:45;69,85
2016-08-16 04:00;68
2016-08-16 04:15;71,1
2016-08-16 04:30;68,55
2016-08-16 04:45;70,7
2016-08-16 05:00;68,7
2016-08-16 05:15;70,05
2016-08-16 05:30;68,7
2016-08-16 05:45;69,9
2016-08-16 06:00;68,15
2016-08-16 06:15;68,85
2016-08-16 06:30;68,25
2016-08-16 06:45;65,55
2016-08-16 07:00;62,2
2016-08-16 07:15;68,05
2016-08-16 07:30;69,15
2016-08-16 07:45;66,5
2016-08-16 08:00;69,95
2016-08-16 08:15;67,7
2016-08-16 08:30;68,85
2016-08-16 08:45;70
2016-08-16 09:00;68,6
2016-08-16 09:15;72,7
2016-08-16 09:30;70,1
2016-08-16 09:45;71,15
2016-08-16 10:00;73,55
2016-08-16 10:15;69,5
2016-08-16 10:30;74,25
2016-08-16 10:45;72,95
2016-08-16 11:00;78,45
2016-08-16 11:15;80,25
2016-08-16 11:30;78,2
2016-08-16 11:45;80,95
2016-08-16 12:00;82,15
2016-08-16 12:15;80
2016-08-16 12:30;82,05
2016-08-16 12:45;82,65
2016-08-16 13:00;80,55
2016-08-16 13:15;79,9
2016-08-16 13:30;81,05
2016-08-16 13:45;80,5
2016-08-16 14:00;79,3
2016-08-16 14:15;79,8
2016-08-16 14:30;78,4
2016-08-16 14:45;81,8
2016-08-16 15:00;84,75
2016-08-16 15:15;83,45
2016-08-16 15:30;74,7
2016-08-16 15:45;77,5
2016-08-16 16:00;77,95
2016-08-16 16:15;76,05
2016-08-16 16:30;76,3
2016-08-16 16:45;79,55
2016-08-16 17:00;82,35
2016-08-16 17:15;83,85
2016-08-16 17:30;83,65
2016-08-16 17:45;85,35
2016-08-16 18:00;85,65
2016-08-16 18:15;85,8
2016-08-16 18:30;83,45
2016-08-16 18:45;85,05
2016-08-16 19:00;83,85
2016-08-16 19:15;77,7
2016-08-16 19:30;79,75
2016-08-16 19:45;79,55
2016-08-16 20:00;77,75
2016-08-16 20:15;80,4
2016-08-16 20:30;78,55
2016-08-16 20:45;80,45
2016-08-16 21:00;77,75
2016-08-16 21:15;78,7
2016-08-16 21:30;76,55
2016-08-16 21:45;76,05
2016-08-16 22:00;76,45
2016-08-16 22:15;75,7
2016-08-16 22:30;81,15
2016-08-16 22:45;81,5
2016-08-16 23:00;82,55
2016-08-16 23:15;77,45
2016-08-16 23:30;74,4
2016-08-16 23:45;71,3
2016-08-17 00:00;71,55
2016-08-17 00:15;70,3
2016-08-17 00:30;72,45
2016-08-17 00:45;69,7
2016-08-17 01:00;72,95
2016-08-17 01:15;69,35
2016-08-17 01:30;70,95
2016-08-17 01:45;69,1
2016-08-17 02:00;70,4
2016-08-17 02:15;69,45
2016-08-17 02:30;70,45
2016-08-17 02:45;69,05
2016-08-17 03:00;69,95
2016-08-17 03:15;69,2
2016-08-17 03:30;68,8
2016-08-17 03:45;69
2016-08-17 04:00;70,5
2016-08-17 04:15;69,45
2016-08-17 04:30;69
2016-08-17 04:45;68,05
2016-08-17 05:00;69,1
2016-08-17 05:15;68,6
2016-08-17 05:30;69,6
2016-08-17 05:45;67,7
2016-08-17 06:00;68,8
2016-08-17 06:15;67,15
2016-08-17 06:30;65,9
2016-08-17 06:45;63,15
2016-08-17 07:00;61,45
2016-08-17 07:15;67,8
2016-08-17 07:30;66,95
2016-08-17 07:45;66,6
2016-08-17 08:00;67,2
2016-08-17 08:15;69,8
2016-08-17 08:30;70,25
2016-08-17 08:45;69,55
2016-08-17 09:00;70,2
2016-08-17 09:15;69,3
2016-08-17 09:30;70,6
2016-08-17 09:45;72,6
2016-08-17 10:00;72,15
2016-08-17 10:15;70,05
2016-08-17 10:30;72,9
2016-08-17 10:45;70,95
2016-08-17 11:00;76,35
2016-08-17 11:15;75,9
2016-08-17 11:30;77,1
2016-08-17 11:45;77,8
2016-08-17 12:00;76,7
2016-08-17 12:15;78,75
2016-08-17 12:30;82
2016-08-17 12:45;81,9
2016-08-17 13:00;80,1
2016-08-17 13:15;81,1
2016-08-17 13:30;80,3
2016-08-17 13:45;82,55
2016-08-17 14:00;84,2
2016-08-17 14:15;77,65
2016-08-17 14:30;80,55
2016-08-17 14:45;76,95
2016-08-17 15:00;76,3
2016-08-17 15:15;77,3
2016-08-17 15:30;77,05
2016-08-17 15:45;75,35
2016-08-17 16:00;77,9
2016-08-17 16:15;75,75
2016-08-17 16:30;81,65
2016-08-17 16:45;88,6
2016-08-17 17:00;86,8
2016-08-17 17:15;88,3
2016-08-17 17:30;83,35
2016-08-17 17:45;81,15
2016-08-17 18:00;82,95
2016-08-17 18:15;83,8
2016-08-17 18:30;83,1
2016-08-17 18:45;86,6
2016-08-17 19:00;90,1
2016-08-17 19:15;85,45
2016-08-17 19:30;86,75
2016-08-17 19:45;84,7
2016-08-17 20:00;82
2016-08-17 20:15;85,55
2016-08-17 20:30;84,2
2016-08-17 20:45;86,15
2016-08-17 21:00;85,45
2016-08-17 21:15;81
2016-08-17 21:30;79,15
2016-08-17 21:45;76,2
2016-08-17 22:00;77,75
2016-08-17 22:15;75,75
2016-08-17 22:30;78,2
2016-08-17 22:45;75,1
2016-08-17 23:00;76
2016-08-17 23:15;73,85
2016-08-17 23:30;76,05
2016-08-17 23:45;74,3
2016-08-18 00:00;76,45
2016-08-18 00:15;74,1
2016-08-18 00:30;74,3
2016-08-18 00:45;75
2016-08-18 01:00;78,9
2016-08-18 01:15;79,35
2016-08-18 01:30;78,4
2016-08-18 01:45;73,2
2016-08-18 02:00;69,6
2016-08-18 02:15;72,25
2016-08-18 02:30;69,15
2016-08-18 02:45;72,05
2016-08-18 03:00;69,6
2016-08-18 03:15;71,85
2016-08-18 03:30;70,85
2016-08-18 03:45;72,05
2016-08-18 04:00;70,15
2016-08-18 04:15;71,95
2016-08-18 04:30;69,9
2016-08-18 04:45;70,45
2016-08-18 05:00;69,7
2016-08-18 05:15;70,75
2016-08-18 05:30;68,6
2016-08-18 05:45;70,8
2016-08-18 06:00;69,4
2016-08-18 06:15;69,6
2016-08-18 06:30;69,7
2016-08-18 06:45;66,8
2016-08-18 07:00;63,5
2016-08-18 07:15;70,3
2016-08-18 07:30;70,65
2016-08-18 07:45;67,65
2016-08-18 08:00;69,95
2016-08-18 08:15;70,95
2016-08-18 08:30;69,8
2016-08-18 08:45;68,85
2016-08-18 09:00;75,15
2016-08-18 09:15;74,15
2016-08-18 09:30;74,6
2016-08-18 09:45;74,85
2016-08-18 10:00;76,45
2016-08-18 10:15;75,15
2016-08-18 10:30;76,5
2016-08-18 10:45;81,65
2016-08-18 11:00;87,3
2016-08-18 11:15;81,55
2016-08-18 11:30;79,05
2016-08-18 11:45;85,35
2016-08-18 12:00;83,15
2016-08-18 12:15;82,9
2016-08-18 12:30;85,4
2016-08-18 12:45;82,2
2016-08-18 13:00;81,8
2016-08-18 13:15;81,2
2016-08-18 13:30;82,15
2016-08-18 13:45;84,35
2016-08-18 14:00;84,45
2016-08-18 14:15;84,95
2016-08-18 14:30;84,9
2016-08-18 14:45;82,1
2016-08-18 15:00;84,25
2016-08-18 15:15;82,55
2016-08-18 15:30;79,75
2016-08-18 15:45;81,95
2016-08-18 16:00;81,65
2016-08-18 16:15;80,5
2016-08-18 16:30;84,3
2016-08-18 16:45;83,75
2016-08-18 17:00;90,85
2016-08-18 17:15;91,15
2016-08-18 17:30;87,55
2016-08-18 17:45;85,3
2016-08-18 18:00;85,1
2016-08-18 18:15;83,5
2016-08-18 18:30;86,25
2016-08-18 18:45;86,35
2016-08-18 19:00;82
2016-08-18 19:15;76,1
2016-08-18 19:30;78,3
2016-08-18 19:45;75,8
2016-08-18 20:00;76,35
2016-08-18 20:15;78,05
2016-08-18 20:30;79,1
2016-08-18 20:45;80,55
2016-08-18 21:00;81,3
2016-08-18 21:15;77,65
2016-08-18 21:30;79,55
2016-08-18 21:45;76,95
2016-08-18 22:00;77,2
2016-08-18 22:15;77
2016-08-18 22:30;73,7
2016-08-18 22:45;76,5
2016-08-18 23:00;75,35
2016-08-18 23:15;75,7
2016-08-18 23:30;75,5
2016-08-18 23:45;73,85
2016-08-19 00:00;75,5
2016-08-19 00:15;75,1
2016-08-19 00:30;71,8
2016-08-19 00:45;74,65
2016-08-19 01:00;73,05
2016-08-19 01:15;73,15
2016-08-19 01:30;73,15
2016-08-19 01:45;71,75
2016-08-19 02:00;73,85
2016-08-19 02:15;71,4
2016-08-19 02:30;73,15
2016-08-19 02:45;71,95
2016-08-19 03:00;72,05
2016-08-19 03:15;72,4
2016-08-19 03:30;71,15
2016-08-19 03:45;73,2
2016-08-19 04:00;73,6
2016-08-19 04:15;71,25
2016-08-19 04:30;72,35
2016-08-19 04:45;71,25
2016-08-19 05:00;75,4
2016-08-19 05:15;77,15
2016-08-19 05:30;77,75
2016-08-19 05:45;77,15
2016-08-19 06:00;70,25
2016-08-19 06:15;71,75
2016-08-19 06:30;68,9
2016-08-19 06:45;69
2016-08-19 07:00;65,1
2016-08-19 07:15;70,6
2016-08-19 07:30;71,2
2016-08-19 07:45;70,2
2016-08-19 08:00;72
2016-08-19 08:15;72,9
2016-08-19 08:30;72,15
2016-08-19 08:45;73,7
2016-08-19 09:00;71,15
2016-08-19 09:15;72,85
2016-08-19 09:30;75,3
2016-08-19 09:45;73,75
2016-08-19 10:00;78,95
2016-08-19 10:15;81,45
2016-08-19 10:30;82,1
2016-08-19 10:45;81,3
2016-08-19 11:00;83,7
2016-08-19 11:15;83,45
2016-08-19 11:30;84,75
2016-08-19 11:45;86,45
2016-08-19 12:00;89,45
2016-08-19 12:15;88,35
2016-08-19 12:30;88,85
2016-08-19 12:45;90,2
2016-08-19 13:00;89,6
2016-08-19 13:15;95,5
2016-08-19 13:30;99,35
2016-08-19 13:45;94,1
2016-08-19 14:00;89,3
2016-08-19 14:15;89,2
2016-08-19 14:30;84,45
2016-08-19 14:45;84,4
2016-08-19 15:00;84,9
2016-08-19 15:15;82,9
2016-08-19 15:30;83,5
2016-08-19 15:45;81,6
2016-08-19 16:00;83,5
2016-08-19 16:15;81,65
2016-08-19 16:30;78,65
2016-08-19 16:45;81,3
2016-08-19 17:00;82,45
2016-08-19 17:15;81,15
2016-08-19 17:30;81,8
2016-08-19 17:45;81,35
2016-08-19 18:00;83,5
2016-08-19 18:15;84,6
2016-08-19 18:30;82,45
2016-08-19 18:45;83,3
2016-08-19 19:00;82
2016-08-19 19:15;78,1
2016-08-19 19:30;76,65
2016-08-19 19:45;76,85
2016-08-19 20:00;77,85
2016-08-19 20:15;77,2
2016-08-19 20:30;81,15
2016-08-19 20:45;79
2016-08-19 21:00;79,55
2016-08-19 21:15;77,8
2016-08-19 21:30;78,25
2016-08-19 21:45;79,55
2016-08-19 22:00;75,25
2016-08-19 22:15;78,05
2016-08-19 22:30;75,05
2016-08-19 22:45;78,9
2016-08-19 23:00;82
2016-08-19 23:15;83,3
2016-08-19 23:30;80,9
2016-08-19 23:45;75,55
2016-08-20 00:00;74,95
2016-08-20 00:15;75,05
2016-08-20 00:30;74,25
2016-08-20 00:45;74,65
2016-08-20 01:00;72,8
2016-08-20 01:15;75,05
2016-08-20 01:30;71,35
2016-08-20 01:45;73,4
2016-08-20 02:00;72,25
2016-08-20 02:15;72
2016-08-20 02:30;71,15
2016-08-20 02:45;70,1
2016-08-20 03:00;71,8
2016-08-20 03:15;70,3
2016-08-20 03:30;72,75
2016-08-20 03:45;71,2
2016-08-20 04:00;70,2
2016-08-20 04:15;71,7
2016-08-20 04:30;70,35
2016-08-20 04:45;69,95
2016-08-20 05:00;70,35
2016-08-20 05:15;70,55
2016-08-20 05:30;69,3
2016-08-20 05:45;71,5
2016-08-20 06:00;70,3
2016-08-20 06:15;69,65
2016-08-20 06:30;70,3
2016-08-20 06:45;67,6
2016-08-20 07:00;64,85
2016-08-20 07:15;65,4
2016-08-20 07:30;68,3
2016-08-20 07:45;66,95
2016-08-20 08:00;67,3
2016-08-20 08:15;68,7
2016-08-20 08:30;71,8
2016-08-20 08:45;68,15
2016-08-20 09:00;75,7
2016-08-20 09:15;78,35
2016-08-20 09:30;75
2016-08-20 09:45;74,25
2016-08-20 10:00;73,15
2016-08-20 10:15;73,1
2016-08-20 10:30;76,15
2016-08-20 10:45;76,5
2016-08-20 11:00;75,45
2016-08-20 11:15;77,1
2016-08-20 11:30;78,95
2016-08-20 11:45;77,5
2016-08-20 12:00;82,05
2016-08-20 12:15;84,15
2016-08-20 12:30;84,3
2016-08-20 12:45;84,7
2016-08-20 13:00;80,8
2016-08-20 13:15;76,45
2016-08-20 13:30;83,3
2016-08-20 13:45;82,75
2016-08-20 14:00;81,3
2016-08-20 14:15;79,95
2016-08-20 14:30;77,9
2016-08-20 14:45;75,45
2016-08-20 15:00;74,7
2016-08-20 15:15;74,1
2016-08-20 15:30;72,65
2016-08-20 15:45;74,55
2016-08-20 16:00;72,95
2016-08-20 16:15;73,3
2016-08-20 16:30;73
2016-08-20 16:45;77,8
2016-08-20 17:00;78,25
2016-08-20 17:15;76,2
2016-08-20 17:30;77,35
2016-08-20 17:45;78,1
2016-08-20 18:00;76,05
2016-08-20 18:15;77,7
2016-08-20 18:30;77,05
2016-08-20 18:45;75
2016-08-20 19:00;78,95
2016-08-20 19:15;76,65
2016-08-20 19:30;80,15
2016-08-20 19:45;78,4
2016-08-20 20:00;75,5
2016-08-20 20:15;76,5
2016-08-20 20:30;78,15
2016-08-20 20:45;78,75
2016-08-20 21:00;77,95
2016-08-20 21:15;76,4
2016-08-20 21:30;78,25
2016-08-20 21:45;81,5
2016-08-20 22:00;84
2016-08-20 22:15;83,7
2016-08-20 22:30;80
2016-08-20 22:45;78,35
2016-08-20 23:00;78,8
2016-08-20 23:15;77,65
2016-08-20 23:30;76,15
2016-08-20 23:45;76,8
2016-08-21 00:00;75,4
2016-08-21 00:15;77,95
2016-08-21 00:30;76,4
2016-08-21 00:45;77,25
2016-08-21 01:00;76
2016-08-21 01:15;75,65
2016-08-21 01:30;73,95
2016-08-21 01:45;75,05
2016-08-21 02:00;73,5
2016-08-21 02:15;75,2
2016-08-21 02:30;73,75
2016-08-21 02:45;74
2016-08-21 03:00;71,8
2016-08-21 03:15;74,85
2016-08-21 03:30;72,45
2016-08-21 03:45;76,35
2016-08-21 04:00;73
2016-08-21 04:15;75,95
2016-08-21 04:30;73,55
2016-08-21 04:45;74,2
2016-08-21 05:00;73,3
2016-08-21 05:15;73,85
2016-08-21 05:30;72,85
2016-08-21 05:45;73,75
2016-08-21 06:00;72,15
2016-08-21 06:15;73,1
2016-08-21 06:30;71,6
2016-08-21 06:45;71,5
2016-08-21 07:00;66,8
2016-08-21 07:15;70,5
2016-08-21 07:30;68,9
2016-08-21 07:45;70,2
2016-08-21 08:00;68
2016-08-21 08:15;71,8
2016-08-21 08:30;69,7
2016-08-21 08:45;70,85
2016-08-21 09:00;71
2016-08-21 09:15;69,15
2016-08-21 09:30;73,65
2016-08-21 09:45;72,05
2016-08-21 10:00;71,8
2016-08-21 10:15;73,65
2016-08-21 10:30;78,95
2016-08-21 10:45;81
2016-08-21 11:00;87,2
2016-08-21 11:15;81,4
2016-08-21 11:30;80,35
2016-08-21 11:45;79,9
2016-08-21 12:00;79,65
2016-08-21 12:15;77,5
2016-08-21 12:30;78,65
2016-08-21 12:45;78,9
2016-08-21 13:00;76,75
2016-08-21 13:15;76,1
2016-08-21 13:30;73,4
2016-08-21 13:45;73,55
2016-08-21 14:00;74,8
2016-08-21 14:15;71,85
2016-08-21 14:30;72,5
2016-08-21 14:45;71,8
2016-08-21 15:00;71,55
2016-08-21 15:15;72,55
2016-08-21 15:30;74
2016-08-21 15:45;71,4
2016-08-21 16:00;74,9
2016-08-21 16:15;73,2
2016-08-21 16:30;71,45
2016-08-21 16:45;74,85
2016-08-21 17:00;75,15
2016-08-21 17:15;75
2016-08-21 17:30;76,5
2016-08-21 17:45;77,05
2016-08-21 18:00;74,9
2016-08-21 18:15;75,3
2016-08-21 18:30;78,9
2016-08-21 18:45;76,65
2016-08-21 19:00;79,65
2016-08-21 19:15;80,3
2016-08-21 19:30;79,1
2016-08-21 19:45;80,15
2016-08-21 20:00;78,95
2016-08-21 20:15;80,8
2016-08-21 20:30;83,85
2016-08-21 20:45;81,85
2016-08-21 21:00;82,1
2016-08-21 21:15;80,85
2016-08-21 21:30;79,75
2016-08-21 21:45;81,2
2016-08-21 22:00;83,3
2016-08-21 22:15;88,1
2016-08-21 22:30;89,6
2016-08-21 22:45;83,75
2016-08-21 23:00;80,95
2016-08-21 23:15;80,25
2016-08-21 23:30;78,3
2016-08-21 23:45;77,9

